Regional Weather Roundup
Issued by NWS Charleston, SC

Current Version | Previous Version | Text Only | Print | Product List | Glossary Off
Versions: 1 2 3 4 5 6 7 8 9 10 11 12 13 14 15 16 17 18 19 20 21 22 23 24 25 26 27 28 29 30 31 32 33 34 35 36 37 38 39 40 41 42 43 44 45 46 47 48 49 50

000
ASUS42 KCHS 291728
RWRCHS

REGIONAL WEATHER ROUNDUP
NATIONAL WEATHER SERVICE CHARLESTON SC
100 PM EDT FRI APR 29 2016

NOTE: "FAIR" INDICATES FEW OR NO CLOUDS BELOW 12,000 FEET WITH NO
SIGNIFICANT WEATHER AND/OR OBSTRUCTIONS TO VISIBILITY.

NOT ALL STATIONS ARE QUALITY CONTROLLED. USE DATA WITH CAUTION...
ESPECIALLY DEWPOINT OBSERVATIONS.

SCZ027-030-031-034>040-042>050-291800-
...SOUTHEAST SOUTH CAROLINA...

CITY           SKY/WX    TMP DP  RH WIND       PRES   REMARKS
N CHARLESTON   MOSUNNY   87  60  40 NE9       29.94F
WATERFRONT PRK   N/A     83  64  52 N7        29.93F
MOUNT PLEASANT FAIR      88  63  42 CALM      29.94S
JOHNS ISLAND   FAIR      88  61  40 NE7       29.94F
PINOPOLIS        N/A     82  68  61 CALM      29.89F
MONCKS CORNER  FAIR      82  59  44 NE6       29.94F
SUMMERVILLE    FAIR      88  59  37 N3        29.95F
BEAUFORT MCAS  MOSUNNY   88  57  34 CALM      29.95F
BEAUFORT ARPT  FAIR      86  55  35 CALM      29.94F
HILTON HEAD IS SUNNY     91  63  38 NE6       29.96F HX  92
WALTERBORO     MOSUNNY   88  55  33 CALM      29.95F
ALLENDALE      FAIR      88  57  35 CALM      29.94F

...SOUTHERN MIDLANDS AND PEE DEE...

CITY           SKY/WX    TMP DP  RH WIND       PRES   REMARKS
GEORGETOWN     FAIR      82  63  51 E7        29.95F
KINGSTREE      FAIR      82  59  44 N6        29.96S HAZE
ORANGEBURG     SUNNY     86  57  37 VRB3      29.96F
BARNWELL       FAIR      90  57  33 E6        29.97S
AIKEN          FAIR      84  50  30 CALM      30.01S
MANNING        NOT AVBL
COLUMBIA       PTSUNNY   87  56  34 VRB7      29.97R
SUMTER         SUNNY     83  63  50 VRB1      29.94F
FLORENCE       SUNNY     82  63  52 NE8       29.96F
MYRTLE BEACH   MOSUNNY   84  61  45 N14       29.97F
N MYRTLE BEACH SUNNY     82  62  50 N7        29.95F

$$

GAZ063-065-086>088-099>101-113>116-118-119-134>141-150-291800-
...SOUTHEAST GEORGIA...

CITY           SKY/WX    TMP DP  RH WIND       PRES   REMARKS
SAVANNAH ARPT  MOSUNNY   89  59  36 NW7       29.95F
HUNTER AAF     SUNNY     89  62  40 VRB3      29.93F
FORT STEWART   SUNNY     87  57  36 CALM      29.93F
STATESBORO     SUNNY     91  63  40 NW6       29.96S HX  91
SYLVANIA       SUNNY     88  60  38 SW3       29.97F
CLAXTON        FAIR      88  61  39 NW3       29.96F

...CSRA...CENTRAL AND FAR SOUTHEAST GEORGIA...

CITY           SKY/WX    TMP DP  RH WIND       PRES   REMARKS
THOMSON        SUNNY     85  62  44 CALM      30.02F
AUGUSTA-BUSH   SUNNY     86  56  35 E3        29.97S
AUGUSTA-DANIEL SUNNY     86  56  35 CALM      29.98F
SWAINSBORO     FAIR      86  57  37 CALM      29.98F
VIDALIA        SUNNY     86  61  42 SE3       29.97F
EASTMAN        FAIR      87  60  41 CALM      30.00F
HAZLEHURST     FAIR      87  60  40 NE5       29.97F
ALMA           MOSUNNY   86  63  45 VRB3      29.97F
WAYCROSS       PTSUNNY   85  65  51 CALM      29.97F
JESUP          FAIR      90  63  40 NE6       29.97S HX  90
BAXLEY         FAIR      88  59  37 NE6       29.97S
BRUNSWICK      CLOUDY    90  63  40 SE5       29.96F HX  90
SAINT SIMONS   SUNNY     84  70  62 S8        29.96F

$$

SCZ027-028-034-036>038-045-046-048>050-GAZ119-141-291800-
...LAKE AND SUPPLEMENTAL COASTAL OBSERVATIONS...

STATION/POSITION TIME  TEMP    WIND        PRES    WAVE   SWELL
                       AIR SEA DIR/SP/G            HT/PER HT/PER/DIR
                 (UTC) (F)     (DEG/KT/KT) (MB)    (FT/S) (FT/S/D)
WINYAH BAY       1600   80      70/  6     1014.0
LAKE MURRAY      1600   81      CALM  /  2 1014.6S
ACE BASIN NERRS  1600   87      30/  2     1015.0S
FORT PULASKI     1700   81 71   80/  5/  5 1014.5F
SAPELO ISLAND    1700   86     190/  5     1014.0F

$$

ANZ835-935-AMZ111-154-330-350-352-354-370-450-454-472-291800-
...C-MAN AND BUOY OBSERVATIONS...

STATION/POSITION TIME  TEMP    WIND        PRES    WAVE   SWELL
                       AIR SEA DIR/SP/G            HT/PER HT/PER/DIR
                 (UTC) (F)     (DEG/KT/KT) (MB)    (FT/S) (FT/S/D)
BUOY 41004       1650   72 72  360/  4/  6 1013.9F   2/ 4   2/ 4
BUOY 41008       NOT AVBL
FOLLY BEACH CMAN 1700   78     150/  4/  4 1014.4F
CAPERS NEARSHORE 1608   75 69  120/  4/  6 1014.2F
FRIPP NEARSHORE  1708   76 70  170/  6/  6 1013.6F


STATION/POSITION TIME  TEMP    WIND        PRES    WAVE   SWELL
                       AIR SEA DIR/SP/G            HT/PER HT/PER/DIR
                 (UTC) (F)     (DEG/KT/KT) (MB)    (FT/S) (FT/S/D)
5E ST. MARYS GA  1621      74                N/A     1/11
FRYING PAN BUOY  1700   69 70   30/ 16/ 19 1014.5F
BUOY 41025       1650   64 70  360/ 16/ 17 1014.0F   3/ 5   2/ 80/ 9
CAPE LOOKOUT NC  1700   67      10/  9/ 11 1014.8F
BUOY 41002       1650   72 71  200/ 12/ 16 1014.7F   3/ 5   2/ 90/ 8
BUOY 41010       1620   76 77  210/ 10/ 10 1016.3F
ST AUGUSTINE FL  1700   72 71   80/  7/  7 1016.3F


$$




USA.gov is the U.S. government's official web portal to all federal, state and local government web resources and services.